Volver al catálogo

CZ-6A DEB

LostPO
NORAD 64629·DEBRIS·🇨🇳 China

Lanzado Aug 6, 2024 desde Taiyuan Satellite Launch Center

Loading…

Próximos Pases (próximas 24 horas)

TLE

ObsoletoSource: Space-Track

Época: Jul 25, 2026, 08:39 UTC

1 64629U 24140ADT 26206.36095079  .00001337  00000-0  46586-3 0  9999
2 64629  88.6787 240.7853 0022223 136.1092 224.1877 14.34696429 98900

Sigue CZ-6A DEB en tiempo real con AllMySat

Download on the App Store